Regional Weather Roundup
Issued by NWS

Home | Current Version | Previous Version | Graphics & Text | Print | Product List | Glossary On
Versions: 1 2 3 4 5 6 7 8 9 10 11 12 13 14 15 16 17 18 19 20 21 22 23 24 25 26 27 28 29 30 31 32 33 34 35 36 37 38 39 40 41 42 43 44 45 46 47 48 49 50
000
ASUS43 KBIS 011802
RWRND

NORTH DAKOTA REGIONAL WEATHER ROUNDUP
NATIONAL WEATHER SERVICE BISMARCK ND
1200 PM CST WED MAR 01 2017

NOTE: "FAIR" INDICATES FEW OR NO CLOUDS BELOW 12,000 FEET WITH NO
SIGNIFICANT WEATHER AND/OR OBSTRUCTIONS TO VISIBILITY.


NDZ001>003-009>011-017-011900-
NORTHWEST NORTH DAKOTA

CITY           SKY/WX    TMP DP  RH WIND       PRES   REMARKS
WILLISTON      FAIR      16   9  74 CALM      30.10S
6HR MIN TEMP:   4; 6HR MAX TEMP:  19;

MINOT          FAIR      18  11  74 NW10      30.09S WCI   6
MINOT AFB      SUNNY     15  10  77 NW12      30.09S WCI   2
$$

NDZ018>021-031>035-040>046-011900-
SOUTHWEST NORTH DAKOTA

CITY           SKY/WX    TMP DP  RH WIND       PRES   REMARKS
BISMARCK       FAIR      23  14  68 NW14      30.12R WCI  11
6HR MIN TEMP:  17; 6HR MAX TEMP:  24; 6HR PCP: TRACE;

DICKINSON      FAIR      23  13  65 W12       30.04S WCI  12
GARRISON         N/A     14   9  80 NW9       30.10S WCI   2
6HR MIN TEMP:   3; 6HR MAX TEMP:  16;

HETTINGER ARPT CLOUDY    26  11  52 W10       30.08S WCI  16
$$

NDZ004>008-012>016-024-026-027-054-011900-
NORTHEAST NORTH DAKOTA

CITY           SKY/WX    TMP DP  RH WIND       PRES   REMARKS
GRAND FORKS    PTSUNNY   20   9  62 N15       30.07R WCI   6
GRND FRKS AFB  PTSUNNY   20  12  69 N14       30.07S WCI   7
DEVILS LAKE    FAIR      13   8  81 W12       30.08R WCI  -1
$$

NDZ022-023-025-028>030-036>039-047>053-011900-
SOUTHEAST NORTH DAKOTA

CITY           SKY/WX    TMP DP  RH WIND       PRES   REMARKS
FARGO          CLOUDY    22  16  78 NW15      30.05R WCI   9
6HR MIN TEMP:  14; 6HR MAX TEMP:  23; 6HR PCP:  0.01;

JAMESTOWN      FAIR      20  14  77 NW17      30.06R WCI   5
$$




USA.gov is the U.S. government's official web portal to all federal, state and local government web resources and services.